Taunton, MA

5:26 AM EDT on August 22, 2017 (GMT -0400)
Taunton Municipal

Weather History for KTAN - June, 2013

Change the Weather History Date:

Friday, June 21, 2013

  Actual Average Record
Temperature  
Mean Temperature 71 °F -  
Max Temperature 82 °F 78 °F 96 °F (2012)
Min Temperature 61 °F 55 °F 29 °F (1986)
Cooling Degree Days 6    
Growing Degree Days 21 (Base 50)    
Moisture  
Dew Point 56 °F    
Average Humidity 61    
Maximum Humidity 83    
Minimum Humidity 48    
Precipitation  
Precipitation 0.00 in - - ()
Sea Level Pressure  
Sea Level Pressure 30.25 in    
Wind  
Wind Speed 7 mph (SW)    
Max Wind Speed 15 mph    
Max Gust Speed 22 mph    
Visibility 10 miles    
Events      
Averages and records for this station are not official NWS values.
T = Trace of Precipitation, MM = Missing Value Source: NWS Daily Summary

Daily Weather History Graph

Daily Weather History Graph

Search for Another Location

Airport or City:

Trip Planner

Search our weather history database for the weather conditions in past years. The results will help you decide how hot, cold, wet, or windy it might be!

Date:

Astronomy

Jun. 21, 2013 Rise Set
Actual Time 5:09 AM EDT 8:22 PM EDT
Civil Twilight 4:34 AM EDT 8:57 PM EDT
Nautical Twilight 3:50 AM EDT 9:41 PM EDT
Astronomical Twilight 2:56 AM EDT 10:34 PM EDT
Moon 6:28 PM EDT (6/21) 3:23 AM EDT (6/21)
Length of Visible Light 16h 22m
Length of Day
15h 13m
Waxing Gibbous, 95% of the Moon is Illuminated
Jun 21
Waxing Gibbous
Jun 23
Full
Jun 30
Last Quarter
Jul 8
New
Jul 15
First Quarter

Hourly Weather History & Observations

Time (EDT) Temp. Heat Index Dew Point Humidity Pressure Visibility Wind Dir Wind Speed Gust Speed Precip Events Conditions
12:52 AM 61.0 °F - 55.9 °F 83% 30.28 in 10.0 mi Variable 3.5 mph - N/A   Clear
1:52 AM 62.1 °F - 55.9 °F 80% 30.27 in 10.0 mi SSW 4.6 mph - N/A   Clear
2:52 AM 62.1 °F - 54.0 °F 75% 30.27 in 10.0 mi SW 5.8 mph - N/A   Clear
3:52 AM 61.0 °F - 52.0 °F 72% 30.25 in 10.0 mi SSW 8.1 mph - N/A   Clear
4:52 AM 61.0 °F - 52.0 °F 72% 30.26 in 10.0 mi SSW 4.6 mph - N/A   Clear
5:52 AM 61.0 °F - 53.1 °F 75% 30.27 in 10.0 mi Variable 4.6 mph - N/A   Clear
6:52 AM 64.0 °F - 53.1 °F 67% 30.27 in 10.0 mi SW 6.9 mph - N/A   Clear
7:52 AM 68.0 °F - 53.1 °F 59% 30.27 in 10.0 mi WSW 8.1 mph - N/A   Clear
8:52 AM 70.0 °F - 54.0 °F 57% 30.27 in 10.0 mi SW 8.1 mph - N/A   Clear
9:52 AM 73.0 °F - 55.9 °F 55% 30.25 in 10.0 mi SW 9.2 mph - N/A   Clear
10:52 AM 77.0 °F - 57.9 °F 52% 30.26 in 10.0 mi SW 9.2 mph - N/A   Clear
11:52 AM 78.1 °F - 60.1 °F 54% 30.26 in 10.0 mi SW 8.1 mph - N/A   Clear
12:52 PM 80.1 °F 81.1 °F 61.0 °F 52% 30.25 in 10.0 mi SSW 8.1 mph - N/A   Clear
1:52 PM 81.0 °F 81.7 °F 61.0 °F 50% 30.23 in 10.0 mi SSW 10.4 mph - N/A   Clear
2:52 PM 81.0 °F 81.6 °F 60.1 °F 49% 30.22 in 10.0 mi SSW 11.5 mph 17.3 mph N/A   Clear
3:52 PM 80.1 °F 80.7 °F 59.0 °F 48% 30.22 in 10.0 mi SW 15.0 mph 21.9 mph N/A   Partly Cloudy
4:52 PM 79.0 °F - 60.1 °F 52% 30.21 in 10.0 mi SW 11.5 mph 21.9 mph N/A   Partly Cloudy
5:52 PM 78.1 °F - 60.1 °F 54% 30.20 in 10.0 mi SW 9.2 mph - N/A   Clear
6:52 PM 75.9 °F - 59.0 °F 56% 30.22 in 10.0 mi SSW 5.8 mph - N/A   Scattered Clouds
7:52 PM 72.0 °F - 57.0 °F 59% 30.23 in 10.0 mi SSW 8.1 mph - N/A   Scattered Clouds
8:52 PM 69.1 °F - 55.0 °F 61% 30.23 in 10.0 mi SSW 6.9 mph - N/A   Partly Cloudy
9:52 PM 66.9 °F - 54.0 °F 63% 30.24 in 10.0 mi SSW 4.6 mph - N/A   Clear
10:52 PM 66.0 °F - 54.0 °F 65% 30.25 in 10.0 mi SSW 4.6 mph - N/A   Clear
11:52 PM 64.9 °F - 53.1 °F 65% 30.24 in 10.0 mi South 4.6 mph - N/A   Clear